Theta_e
317 321 322 321 323 324 327 333 331 329 325 316 313 318 316 316 321 318 318 319 318 318 319 317 318 320 321 324 324 325 323 325 325 324 322 330 337 335 337 337 338 342 342 341 341 343 344 344 343 344 344 343 342 339 337 336 336 336 337 337 336 338 339 337 338 338 338 339 339 339 338 337 336 336 336 334 332 329 326 324 324 323 324 324 321 317 309 303 304 307 309 310 310 309 308 309 311
320 321 323 323 323 324 330 339 332 324 324 314 311 317 313 318 322 317 318 319 320 319 319 319 318 319 322 325 325 329 327 326 327 327 331 335 335 337 341 340 340 342 342 341 341 343 344 344 344 344 344 343 341 339 338 336 336 336 336 336 335 336 338 338 338 338 338 338 339 339 338 337 336 336 335 333 329 327 325 325 324 326 326 325 324 321 314 305 301 303 304 304 305 304 305 306 308
320 320 323 323 324 327 337 339 328 322 321 315 311 316 315 319 320 317 319 317 319 319 319 319 318 317 321 327 324 328 328 326 330 330 333 332 330 337 342 343 342 342 341 340 341 342 343 344 344 344 344 343 341 339 338 337 337 336 336 336 335 335 336 338 338 338 337 337 339 338 337 337 336 335 335 332 328 326 326 326 327 328 327 325 324 322 318 309 301 300 301 301 301 301 301 302 304
320 322 321 325 334 335 344 336 331 328 317 316 314 314 318 318 319 318 319 317 317 318 319 318 317 315 318 324 320 321 323 324 329 330 332 328 328 336 340 344 344 341 341 340 341 342 343 344 344 345 344 343 342 340 339 338 337 337 336 335 335 334 334 336 337 337 336 337 338 338 337 337 336 335 334 331 327 326 326 327 329 328 327 325 323 322 320 314 306 300 300 300 300 300 300 300 301
320 323 320 326 337 335 338 330 334 333 316 320 317 313 318 317 320 319 317 317 315 318 319 318 316 316 320 322 318 322 321 319 325 330 331 328 330 336 340 344 344 342 341 340 341 342 343 344 344 344 344 343 342 340 339 338 337 337 336 334 334 333 332 335 337 337 336 336 337 337 337 337 337 335 333 330 327 326 327 328 329 328 327 325 323 322 321 318 311 302 300 300 300 300 300 300 300
321 322 323 324 325 327 332 324 323 325 318 323 317 314 319 317 320 318 317 315 316 318 317 320 318 320 326 324 323 329 326 322 326 330 331 332 335 336 339 343 344 343 342 340 341 342 342 343 344 344 344 344 343 341 340 339 338 337 336 334 334 333 330 333 336 336 336 336 337 337 337 336 336 334 332 330 327 327 329 329 329 328 327 325 324 323 321 319 315 307 300 300 300 300 301 300 300
321 321 328 331 325 326 330 322 318 320 317 319 317 315 316 316 318 318 317 315 316 315 316 320 319 324 325 322 326 329 330 328 330 333 334 335 337 337 338 342 344 343 342 341 341 342 342 343 343 343 343 344 343 341 340 339 338 337 336 334 333 331 329 333 336 336 336 336 337 337 337 336 335 334 332 329 327 329 330 330 329 328 326 325 324 323 322 319 317 312 303 300 300 300 301 300 301
323 322 331 341 336 333 330 322 320 322 318 315 317 317 316 317 317 318 318 316 316 315 316 316 318 325 321 324 334 330 328 331 333 335 336 337 337 337 338 341 344 343 342 341 341 342 342 342 343 343 343 343 343 342 341 339 338 338 336 333 332 331 330 333 336 337 337 336 336 336 336 336 335 333 330 328 329 331 331 330 329 327 326 325 324 323 322 320 319 315 307 300 300 300 300 300 301
322 320 327 336 333 332 328 320 318 319 317 316 316 318 320 319 317 318 318 316 316 315 315 313 318 325 322 329 334 323 320 328 333 334 337 339 338 337 337 341 344 343 342 341 341 342 342 342 343 343 343 343 343 342 341 340 338 338 336 332 331 330 330 333 336 337 337 336 337 336 336 336 334 332 329 330 332 332 331 329 328 327 325 325 324 323 322 321 320 317 311 303 299 300 300 300 301
325 321 325 334 331 325 320 319 320 318 316 317 315 317 318 316 318 318 317 316 315 315 313 314 318 320 320 323 321 314 313 320 331 332 334 339 339 339 338 341 342 343 342 341 342 342 343 342 342 344 343 343 343 342 341 340 339 338 336 333 330 329 329 332 335 336 336 336 336 336 335 335 334 332 331 332 332 332 331 329 328 327 325 325 324 323 322 321 320 319 314 304 299 299 300 300 300
331 328 335 338 329 323 321 320 319 317 316 317 316 317 317 317 319 316 317 316 315 317 313 314 317 317 316 316 314 312 311 316 327 331 330 336 340 340 341 343 343 343 343 343 343 343 343 343 343 343 343 343 343 342 341 340 339 338 337 334 330 329 329 331 334 335 335 336 336 336 335 335 334 333 333 333 332 332 331 329 328 328 326 325 324 323 322 321 320 319 313 304 299 299 299 299 300
327 332 350 336 324 327 324 321 318 318 317 317 317 317 317 318 319 316 317 316 317 318 314 315 315 317 317 315 313 311 312 314 323 332 329 333 339 341 342 343 344 343 344 344 344 344 343 343 342 343 343 343 342 341 341 340 339 338 336 334 332 329 330 331 333 334 335 335 336 336 335 335 334 333 333 333 333 332 330 329 328 328 326 325 324 323 321 320 319 317 311 304 299 298 298 299 301
326 331 353 328 321 329 323 320 319 320 318 317 318 316 317 318 318 317 318 317 318 319 315 314 313 318 318 315 314 312 314 313 321 333 329 330 336 339 340 341 342 343 344 343 342 342 341 341 340 340 342 343 342 341 340 340 339 339 336 335 333 331 331 331 331 334 334 335 335 335 335 335 334 334 333 333 333 331 330 329 328 328 327 325 324 323 320 319 318 316 312 307 302 298 298 299 302
325 332 351 324 319 327 321 320 319 321 318 319 318 315 317 316 317 317 319 319 316 317 313 312 313 318 317 313 316 316 315 314 323 333 329 328 332 336 338 338 340 341 343 342 342 341 339 339 338 338 342 342 341 341 340 340 339 339 337 335 334 333 332 331 331 332 333 335 334 335 335 334 334 334 333 333 333 332 330 329 329 329 327 326 324 322 320 318 318 317 315 312 306 301 298 298 300
321 338 349 324 318 322 320 320 322 324 319 319 317 315 317 314 316 317 319 318 314 313 312 312 312 315 317 316 317 316 314 315 326 333 329 329 330 334 335 335 337 337 340 340 340 340 338 340 340 339 341 340 340 341 340 339 339 339 338 336 335 334 333 332 331 331 331 333 334 334 334 335 334 334 334 333 333 332 331 330 329 329 328 326 324 323 321 320 319 318 317 315 312 307 303 299 298
329 346 345 325 319 318 316 318 321 323 319 320 317 315 317 314 315 316 314 315 315 313 313 315 312 313 317 317 315 313 315 317 327 333 331 331 331 331 332 333 333 333 334 335 336 336 336 340 341 339 339 339 340 340 339 339 338 338 339 337 336 336 334 333 332 332 330 331 332 334 334 334 335 334 334 334 333 332 331 330 329 329 328 327 324 323 322 321 321 320 318 316 315 313 310 305 302
340 350 344 327 318 316 315 317 320 322 320 320 316 316 318 315 315 313 310 315 318 314 313 314 311 311 314 314 313 314 317 319 329 334 329 328 326 324 325 326 328 329 330 331 332 334 335 338 339 339 340 340 340 338 336 337 338 337 338 337 337 336 335 334 333 332 331 330 331 332 333 334 334 334 334 334 333 332 332 331 330 329 329 327 324 324 323 322 322 321 320 318 316 315 314 311 309
342 343 337 322 315 316 316 319 321 320 318 317 315 317 319 317 316 314 312 314 315 314 313 313 312 311 311 313 314 315 317 321 328 328 322 319 318 318 318 318 321 322 323 326 328 331 333 335 336 337 338 339 341 340 336 337 338 338 337 337 337 337 336 335 333 333 333 331 331 331 332 333 334 333 333 334 333 333 332 331 331 330 329 327 325 324 323 323 322 322 321 320 318 316 316 314 312
334 338 331 320 319 317 313 318 318 316 317 317 316 316 318 316 315 314 314 313 314 318 315 312 314 313 312 313 314 314 315 318 320 319 315 314 314 314 315 315 316 317 318 321 323 327 330 332 334 335 336 336 338 339 338 338 338 337 337 337 337 337 337 336 335 334 334 333 331 330 331 331 332 331 332 333 333 333 332 331 331 330 329 328 325 324 324 323 323 323 322 321 319 317 317 316 314
326 334 325 317 321 317 313 317 316 317 318 318 316 315 316 316 315 314 316 315 315 321 318 315 315 314 314 312 312 314 314 315 315 315 314 313 314 313 314 314 314 315 316 317 319 322 325 329 332 333 334 335 336 338 338 339 338 337 337 337 337 338 338 337 336 335 335 334 332 331 330 331 331 331 332 333 333 333 332 331 331 329 328 329 326 324 324 324 324 323 323 322 320 319 318 317 316
321 327 322 315 317 316 315 316 317 318 318 319 318 316 316 315 315 316 317 316 317 319 318 319 317 314 315 312 311 312 312 313 313 314 313 313 313 313 313 314 314 314 315 316 317 318 321 325 330 332 333 335 336 337 339 340 339 338 338 337 338 338 338 337 336 336 336 334 334 332 330 331 332 333 333 333 333 332 332 331 330 329 328 329 327 325 325 324 324 323 323 322 321 320 320 319 318
319 318 317 317 317 317 315 316 318 318 318 320 318 315 316 315 315 317 317 318 321 320 317 318 316 313 313 312 311 311 310 311 311 312 312 312 312 312 313 313 313 313 313 314 315 316 318 321 326 330 332 334 335 335 337 339 340 339 338 338 338 338 338 337 335 335 335 333 334 334 332 333 334 334 334 333 333 332 332 331 329 329 328 329 328 326 325 324 324 323 323 323 322 321 320 320 319
320 316 316 318 318 317 317 317 318 318 319 318 317 316 315 316 316 317 317 317 318 316 315 314 312 310 311 310 310 310 310 309 310 311 311 311 312 312 313 313 313 312 312 312 313 315 316 317 322 327 331 333 333 334 335 337 339 339 339 339 338 337 336 335 334 332 333 332 332 333 333 333 333 334 333 333 333 332 332 330 329 329 328 330 329 328 327 325 325 323 323 323 322 321 320 320 320
324 319 316 317 316 318 318 318 319 320 320 317 316 314 315 318 315 315 317 315 313 311 309 308 308 308 309 309 309 309 309 309 309 310 310 311 312 313 313 313 312 312 312 312 314 316 317 317 318 324 330 330 331 333 334 335 338 339 339 338 337 336 335 334 333 332 332 332 331 332 332 332 332 333 333 332 332 332 331 330 330 329 329 330 329 329 328 327 326 323 323 322 321 321 320 320 320
323 318 317 318 317 318 318 319 320 320 318 316 315 315 317 318 314 316 317 313 312 309 307 306 307 308 309 311 309 307 308 308 308 309 310 312 313 313 313 313 313 313 313 314 317 318 318 318 318 324 328 327 330 333 334 335 336 337 337 336 334 334 334 332 332 332 332 332 332 332 332 332 331 332 332 332 332 330 329 329 329 329 329 329 329 329 329 328 326 323 323 322 321 321 320 320 320
319 318 318 318 317 317 318 319 320 319 318 316 316 317 319 317 313 315 315 312 312 310 309 310 310 312 313 312 308 306 307 307 307 308 309 312 313 312 313 314 314 314 314 315 318 319 320 320 321 325 326 326 330 333 334 334 335 336 335 333 332 333 332 331 332 331 331 332 331 331 332 331 331 331 331 331 330 329 328 329 327 327 328 328 328 327 327 326 324 323 323 321 321 321 320 320 320
317 318 317 318 317 317 317 317 319 317 316 316 316 319 319 314 314 316 314 311 311 311 312 311 313 314 312 311 308 306 307 306 307 307 309 312 312 313 313 314 315 315 314 317 320 320 322 323 324 326 326 328 331 333 333 333 334 334 333 332 331 331 329 329 330 330 330 329 329 329 330 330 330 330 330 330 329 328 328 327 326 326 325 324 325 324 324 324 323 322 322 321 321 320 320 320 320
315 317 317 319 320 318 317 316 316 315 314 317 316 317 317 312 314 319 315 311 311 312 312 312 314 313 310 312 308 305 305 306 307 307 308 311 312 313 314 315 316 316 315 317 320 322 324 324 326 327 327 330 331 330 330 331 332 331 330 330 330 329 329 329 329 327 326 326 326 326 327 327 328 328 328 327 327 326 325 324 324 323 323 322 322 322 322 322 322 321 321 320 320 320 320 320 319
315 317 317 323 326 322 318 316 316 315 315 318 316 315 318 316 315 316 312 310 311 311 312 312 314 312 310 311 308 305 304 305 307 307 309 311 312 313 314 315 316 316 316 316 320 323 324 324 326 326 327 330 329 328 328 328 329 328 328 327 327 327 328 328 326 325 324 323 323 324 324 325 325 325 325 324 323 323 321 321 321 320 320 320 320 321 321 322 321 321 320 319 319 319 318 316 315
316 316 316 322 326 324 318 314 316 315 315 317 315 317 325 325 318 313 310 310 312 312 312 312 312 311 310 309 309 307 304 304 306 307 309 312 313 313 314 315 315 316 316 317 320 322 323 323 324 325 326 328 328 327 327 327 327 327 326 324 324 323 324 325 324 324 323 322 322 322 323 323 323 323 323 322 321 320 319 318 318 317 316 315 316 318 318 318 318 316 315 315 314 313 311 309 309
318 314 322 326 320 328 326 315 316 315 314 315 315 318 324 327 320 312 310 311 311 313 313 311 311 310 310 309 309 307 304 304 306 307 310 313 313 313 314 315 314 315 316 318 320 321 321 321 323 323 325 327 326 325 325 325 325 324 324 323 322 321 322 323 322 322 321 320 321 321 322 321 322 322 321 321 320 318 317 316 314 312 311 310 310 310 310 309 309 307 305 305 304 303 304 306 308
325 314 328 331 317 332 333 315 316 317 314 313 315 320 322 323 320 311 309 310 311 313 312 311 311 310 310 309 307 307 304 303 306 307 309 312 312 312 314 314 314 314 316 318 318 320 320 318 321 321 322 325 325 324 324 323 322 322 323 320 319 320 320 321 319 319 319 318 319 318 318 319 319 319 318 318 317 315 313 312 311 309 309 308 305 303 302 301 300 299 298 298 299 301 303 306 307
337 321 326 332 320 327 328 315 317 318 315 313 314 321 323 321 316 310 310 310 311 313 312 311 310 309 309 308 306 306 305 304 305 305 307 312 312 311 313 313 314 314 315 317 317 319 318 316 318 318 318 321 320 321 322 319 318 320 321 318 317 317 317 317 315 315 316 315 315 313 314 316 316 316 316 316 315 313 310 309 309 308 308 308 304 300 298 297 296 296 295 296 299 302 304 305 307
336 322 321 330 324 322 324 321 318 315 315 315 314 317 320 320 315 310 310 310 311 312 312 311 310 309 309 308 306 305 305 306 306 304 306 310 310 311 313 312 313 314 314 315 315 316 316 314 315 316 316 317 316 317 318 315 314 315 316 315 315 314 313 312 311 311 311 311 311 310 312 313 313 313 313 313 313 310 309 308 307 307 306 304 300 296 295 294 295 295 295 296 299 304 306 306 307
331 323 323 327 324 321 324 324 319 315 315 316 316 315 317 317 316 313 310 309 311 312 311 310 309 309 309 307 306 305 306 307 305 304 305 308 309 310 312 312 312 313 312 313 313 313 313 313 313 313 313 314 313 314 314 313 312 311 311 312 312 311 309 308 308 308 308 308 308 308 310 311 310 310 310 310 309 308 307 306 305 304 301 298 295 294 294 294 294 294 294 294 297 304 306 305 304
332 333 334 331 326 324 325 325 321 317 315 318 318 316 317 316 315 315 313 310 311 311 311 311 310 309 309 308 306 305 306 306 304 304 305 307 309 310 311 311 311 311 311 311 311 311 311 311 310 308 308 310 311 311 311 311 310 308 308 310 308 305 305 305 305 306 305 305 305 306 307 306 305 305 304 304 304 304 304 303 301 299 296 294 294 293 293 292 293 293 293 293 294 299 304 304 302
326 329 330 329 327 325 326 326 321 316 316 321 321 317 317 316 315 316 314 311 311 311 311 312 311 309 308 308 307 305 306 304 302 304 305 306 308 310 311 310 310 310 309 309 308 308 309 310 309 306 304 305 307 309 309 308 306 306 306 305 303 300 301 302 302 302 302 301 301 301 301 299 298 298 297 297 297 298 298 297 295 294 293 293 293 292 291 291 291 292 292 293 292 294 296 300 302
319 321 322 324 326 325 325 323 319 314 316 323 323 318 318 317 316 316 315 313 312 310 311 312 311 309 308 308 307 306 305 303 302 303 304 305 307 309 310 309 310 309 308 308 307 307 306 307 308 307 304 302 303 305 307 305 302 303 305 303 300 299 298 299 299 298 298 297 296 295 295 294 294 293 293 293 293 293 293 293 292 292 292 291 291 290 290 290 290 290 291 291 291 291 290 293 296
319 320 319 323 326 325 323 323 319 315 316 325 326 320 318 319 318 317 316 314 313 311 310 311 311 310 308 308 307 305 305 304 303 303 303 305 306 307 309 308 309 309 307 307 307 307 305 304 305 305 304 303 302 303 306 305 301 301 304 301 300 299 295 295 295 293 293 293 292 292 292 292 292 292 292 292 292 292 292 292 291 291 291 291 291 290 289 289 289 289 289 289 289 289 289 290 291
319 321 320 323 326 324 324 325 320 317 318 321 323 320 318 318 317 318 317 314 315 315 312 311 311 310 308 307 306 305 305 305 305 304 302 303 304 306 308 307 308 308 307 306 306 306 305 304 304 303 303 303 303 303 305 305 302 300 300 298 298 297 292 291 291 290 291 291 291 291 291 292 292 292 292 292 292 291 291 291 290 290 290 290 290 289 289 289 289 288 288 289 289 289 289 289 289
322 323 321 323 327 325 324 324 322 326 327 323 320 323 326 325 321 321 320 314 314 316 314 313 312 310 309 308 306 304 304 304 305 305 302 301 303 305 307 307 307 307 306 307 306 305 304 304 303 302 301 301 301 302 303 304 303 299 296 294 293 292 290 290 290 289 290 290 290 290 290 291 291 291 291 291 291 290 290 290 290 290 289 289 289 289 288 288 288 288 288 288 288 288 288 287 288
324 325 324 326 329 326 324 325 324 329 334 326 320 326 337 338 330 326 324 318 316 315 314 315 313 310 310 308 306 304 304 303 303 304 302 301 302 304 305 305 306 306 305 306 306 306 305 304 304 303 302 302 301 301 302 304 304 301 298 293 290 290 289 289 289 289 289 290 289 289 289 290 290 290 290 290 290 290 289 289 289 289 289 288 288 288 288 288 288 288 288 288 288 288 288 287 287
323 327 326 326 326 324 324 326 326 330 333 324 319 328 334 332 329 330 329 325 323 317 313 314 312 310 309 307 306 304 303 303 303 302 300 300 301 302 304 304 305 305 305 305 305 305 305 305 305 304 303 302 301 300 301 303 302 299 297 294 290 290 289 288 289 289 289 289 288 289 289 289 289 289 289 289 289 289 289 288 288 288 288 288 288 288 287 287 287 287 287 287 287 287 288 287 287
328 326 326 327 324 325 326 326 326 329 330 325 324 329 328 326 328 328 325 325 326 320 314 312 310 309 308 306 305 304 303 302 303 303 300 299 301 301 303 303 304 304 305 304 303 303 303 304 304 303 302 300 299 299 299 301 301 297 294 292 290 290 289 288 288 288 288 288 288 288 288 288 288 288 288 288 288 288 288 288 288 288 288 287 287 287 287 287 287 287 287 287 287 287 287 287 286
328 324 326 329 328 331 332 331 329 326 325 327 327 324 325 330 331 325 319 322 327 323 317 312 310 309 307 306 305 303 302 302 302 303 300 299 300 301 302 303 303 303 304 304 303 302 302 302 303 302 300 298 298 298 297 297 299 296 293 291 290 289 288 288 287 287 288 288 288 288 288 287 287 287 287 287 287 287 287 287 287 287 287 287 287 287 287 287 287 287 287 287 287 286 286 286 286
323 322 325 328 328 330 332 332 330 328 327 328 328 325 326 330 329 324 320 323 328 323 319 313 309 308 306 305 305 303 302 302 301 300 299 299 300 300 301 302 302 302 303 304 303 301 301 300 300 299 296 296 296 295 295 294 295 294 292 291 290 288 288 287 287 287 287 288 288 287 287 287 287 287 287 287 287 287 287 287 287 287 287 287 287 287 287 287 287 287 286 286 286 286 285 285 285
320 325 330 330 330 330 332 330 327 329 328 327 329 327 325 328 330 328 323 325 327 322 322 317 309 307 306 305 304 302 301 301 301 299 298 299 299 300 301 301 301 301 302 302 300 298 298 297 297 295 293 294 294 293 293 292 292 292 292 292 291 289 288 287 287 287 287 287 287 286 286 286 286 287 286 287 287 287 287 287 287 287 287 287 287 287 287 287 286 286 286 285 285 285 285 284 284
324 333 334 331 332 330 330 329 326 329 329 327 326 323 321 326 332 331 324 322 322 320 322 323 315 308 306 304 303 301 301 300 301 300 297 296 297 298 299 300 300 300 300 299 297 296 296 295 295 294 292 292 292 292 292 291 291 291 291 291 290 289 288 288 288 287 287 287 286 286 286 286 286 286 287 287 287 287 287 287 287 287 287 287 287 287 287 286 286 286 286 285 285 284 284 284 284
326 331 330 328 329 328 329 329 326 327 327 320 318 320 322 323 326 328 324 322 322 318 317 320 318 310 305 304 302 301 300 300 299 299 297 295 296 297 298 298 299 299 299 297 297 296 295 296 295 294 292 291 291 291 291 291 291 291 291 290 290 289 289 289 288 288 287 287 287 287 287 287 287 287 287 287 287 287 287 288 288 288 287 287 287 287 286 286 286 286 286 285 285 284 284 284 284
324 326 328 328 328 329 334 332 326 327 326 317 314 319 324 323 324 323 321 320 320 316 314 317 316 310 305 304 302 301 300 299 298 298 297 295 296 296 297 297 297 298 298 297 296 296 296 296 295 294 293 291 291 291 291 291 291 290 290 290 290 289 289 289 288 288 288 288 287 287 287 287 287 287 287 287 287 287 288 288 288 288 287 287 287 287 286 286 286 286 285 285 284 284 283 283 283
321 324 325 327 330 334 336 333 329 330 328 319 314 320 328 329 326 319 317 317 315 314 313 312 311 308 305 303 302 301 300 299 298 297 296 295 295 297 297 297 297 297 297 297 296 296 296 296 295 295 293 292 291 291 291 291 290 290 290 290 290 289 289 289 288 288 288 288 288 288 288 288 288 287 287 287 287 288 288 288 288 287 287 287 287 286 286 286 286 285 285 285 284 283 283 283 283
321 322 323 326 328 328 328 326 325 324 325 321 318 323 328 326 321 317 315 315 313 312 310 309 309 305 303 303 302 301 299 298 297 296 296 295 295 296 296 296 296 296 296 297 296 296 296 295 295 295 294 292 291 291 291 291 290 290 290 289 289 289 289 288 288 288 288 288 288 288 288 288 288 288 287 288 288 288 288 288 287 287 287 287 286 286 286 286 285 285 284 284 283 283 282 282 282
321 320 323 324 322 322 325 324 319 318 323 324 321 323 325 322 320 318 314 313 313 312 309 308 307 304 303 303 301 300 299 298 297 296 295 294 294 295 295 296 296 295 296 296 296 296 296 296 295 294 293 292 292 291 291 291 290 290 289 289 288 288 288 288 288 288 287 288 288 288 288 288 288 288 288 288 288 288 288 287 287 287 286 286 286 286 285 285 285 284 284 283 283 282 282 282 281
323 324 324 320 319 324 328 327 325 323 326 325 321 323 325 323 324 320 313 315 318 315 310 308 305 303 303 302 301 300 299 298 297 296 294 293 294 294 295 295 295 295 295 295 296 296 296 296 295 294 293 292 292 291 291 291 290 289 289 288 288 288 288 288 288 288 288 288 288 288 288 288 288 288 288 288 288 288 287 287 287 287 286 286 286 285 285 284 284 283 283 282 282 282 281 281 281
321 325 322 321 326 328 325 325 329 328 328 328 324 322 321 321 325 324 318 321 324 316 311 309 306 304 302 302 301 300 299 298 297 296 295 293 293 294 294 295 295 294 294 295 295 295 295 295 295 294 293 292 292 291 291 291 290 289 289 288 288 288 288 288 288 288 288 288 288 288 288 288 288 288 288 288 288 288 287 287 287 286 286 286 285 285 284 283 283 283 282 282 282 281 281 281 281
317 318 316 320 325 326 324 324 326 328 328 329 327 324 324 322 324 327 324 325 325 318 312 310 307 304 302 301 301 300 299 298 296 296 295 293 293 294 294 294 294 294 293 294 294 294 294 294 293 293 292 292 292 291 291 291 290 290 289 288 288 288 288 288 288 288 288 288 288 287 288 288 288 288 288 288 288 287 287 286 286 286 285 285 285 284 283 283 283 282 282 282 281 281 281 281 281
317 319 319 319 319 320 324 322 323 328 329 330 328 325 327 327 323 323 324 323 321 316 314 311 306 303 302 301 301 300 299 298 297 296 295 293 293 293 294 294 294 293 293 293 293 293 293 293 292 292 292 292 292 291 291 291 291 290 289 288 288 288 288 288 288 288 288 287 287 287 288 288 288 288 287 287 287 287 286 286 286 285 285 285 284 284 283 283 282 282 282 281 281 281 281 281 281
318 319 319 319 318 320 323 323 321 323 325 330 329 324 326 330 323 319 320 320 315 312 312 311 307 304 303 301 301 300 299 298 297 296 295 293 293 292 293 293 293 292 292 292 292 292 292 292 292 292 292 292 292 292 291 291 291 291 290 288 288 288 288 288 288 287 287 287 287 287 288 288 288 287 287 287 287 286 286 286 286 285 285 285 284 284 283 283 282 282 282 281 281 281 281 281 280
Wind_Speed
9 7 4 2 2 1 2 4 2 3 4 3 1 2 1 2 2 2 2 3 3 1 2 2 4 3 6 6 9 7 4 1 2 3 2 4 6 5 6 5 9 14 14 17 17 15 14 13 13 13 12 12 12 12 11 11 11 11 12 13 14 14 13 13 13 13 12 12 12 11 12 13 14 14 14 12 12 13 14 14 17 19 20 21 21 22 21 18 16 13 11 9 8 7 7 6 6
8 6 4 1 1 2 0 3 4 3 5 3 2 2 1 3 3 2 2 1 2 4 1 4 6 8 8 8 7 6 5 3 1 3 2 5 7 5 6 6 10 13 14 17 17 15 14 13 13 13 13 13 13 12 12 11 11 11 12 13 13 15 14 13 12 12 12 12 11 11 12 12 13 13 12 11 12 13 14 15 16 19 20 20 21 21 21 19 16 13 11 10 9 8 7 7 6
8 5 4 2 2 3 1 4 4 2 5 3 2 2 1 3 3 5 5 3 5 5 1 4 6 4 5 7 4 4 2 4 3 1 2 5 5 8 10 10 11 10 11 17 17 15 15 14 13 12 13 13 13 12 12 11 11 12 12 13 13 15 15 13 12 12 12 12 11 11 11 12 13 13 12 11 12 13 14 14 15 18 19 19 20 20 21 20 18 14 12 11 10 9 8 8 7
8 5 5 2 2 4 4 4 3 4 4 3 0 4 2 5 6 6 6 5 5 1 2 3 5 3 5 8 3 3 1 3 3 1 1 3 5 10 11 12 12 9 10 16 17 15 15 14 13 12 12 13 12 12 11 11 11 12 12 12 13 14 15 14 13 12 12 12 11 10 11 12 12 12 11 11 12 13 13 13 15 17 18 18 19 20 20 21 19 16 13 12 12 11 11 10 9
7 4 4 4 3 2 3 3 2 5 3 5 3 4 5 6 6 6 4 5 4 4 4 3 3 2 5 5 1 2 2 3 2 2 1 2 8 12 12 15 13 11 11 15 17 15 14 14 13 13 12 13 12 11 10 10 10 10 11 11 12 13 14 14 13 12 12 12 11 10 11 12 12 11 11 11 12 12 11 12 15 17 17 18 19 20 20 20 20 18 15 13 13 13 13 12 11
6 5 6 6 3 1 3 3 3 2 3 5 4 4 6 6 7 6 2 3 4 5 5 4 3 3 4 2 2 3 3 3 2 3 3 3 9 11 12 16 14 12 12 14 17 15 14 13 13 13 12 13 13 11 10 9 9 9 10 10 12 13 13 13 13 12 12 11 10 10 11 12 11 10 10 10 10 10 10 12 15 17 17 17 18 19 19 19 19 18 16 14 13 13 14 14 13
6 3 4 6 3 2 5 4 4 1 1 5 6 6 7 6 6 5 2 1 4 6 5 3 5 7 3 1 2 4 6 3 1 3 3 3 8 11 12 16 16 13 12 14 17 15 13 12 12 13 13 13 13 12 10 9 8 8 9 9 11 12 13 13 13 12 11 11 10 10 11 12 11 9 9 9 9 9 9 12 15 16 16 17 18 18 19 19 19 18 16 14 13 14 14 14 14
6 2 2 5 3 4 4 3 3 3 1 3 4 5 7 7 5 5 2 1 1 2 4 1 4 7 2 1 2 3 9 8 4 5 4 3 6 12 13 16 18 14 12 14 17 14 12 12 12 12 12 13 13 12 11 10 9 8 8 9 11 12 13 13 13 12 10 10 9 9 11 11 10 9 9 10 9 9 10 12 14 15 15 16 17 18 18 18 18 18 17 15 14 14 14 14 14
5 3 2 4 3 3 3 2 1 2 1 1 2 3 4 5 5 4 2 1 1 2 4 3 2 5 0 4 2 4 7 7 4 5 5 6 6 12 13 16 19 16 15 15 17 14 12 13 11 11 11 13 14 12 12 11 10 9 8 8 11 12 13 12 12 12 10 10 9 9 10 11 10 9 9 9 9 9 10 12 14 14 15 16 16 17 17 16 16 16 16 15 14 14 14 14 14
4 4 2 3 3 4 3 1 1 1 1 2 2 2 2 2 4 4 4 2 0 4 2 2 6 6 4 4 1 1 5 5 4 5 5 7 9 12 13 14 16 16 17 17 16 14 13 13 10 10 11 13 14 12 12 11 11 10 9 8 10 12 12 12 11 11 10 9 8 9 10 11 10 9 9 8 8 9 9 11 13 14 14 15 16 16 16 15 15 15 16 15 14 14 14 14 13
3 4 3 4 4 3 2 2 1 1 2 3 1 2 2 2 5 3 3 3 2 4 1 3 6 4 4 3 2 1 4 5 4 4 4 6 10 12 13 13 13 13 17 17 15 14 12 11 9 10 11 13 13 13 12 11 10 10 9 8 10 11 11 11 10 9 9 8 8 9 10 11 10 9 8 8 8 8 8 11 13 13 14 14 15 15 15 15 14 14 15 15 15 14 14 14 13
3 4 4 4 3 3 4 5 4 2 3 2 1 4 1 3 6 2 2 4 2 5 3 2 5 5 4 1 3 2 4 7 4 4 4 5 11 13 13 14 14 13 14 14 13 12 11 10 8 9 11 13 13 12 12 12 11 10 10 9 9 10 11 10 9 8 8 8 8 9 10 11 11 9 8 7 7 7 7 10 12 12 13 13 14 15 16 15 14 14 15 16 15 14 14 14 13
4 1 5 3 3 4 4 5 3 1 3 1 3 4 3 5 3 5 4 4 3 5 3 2 5 6 3 2 0 1 3 6 4 5 4 6 11 13 14 14 15 15 13 12 11 9 8 7 7 9 11 12 13 12 12 13 13 12 11 10 9 10 10 10 9 8 6 6 7 9 10 11 11 9 8 7 6 6 7 9 11 11 12 13 13 15 16 15 15 15 16 16 16 15 14 13 13
3 3 5 3 2 4 5 3 2 3 1 5 3 3 2 3 3 5 6 5 3 3 1 3 4 5 2 2 1 2 4 4 7 7 7 10 12 13 15 15 16 16 14 13 12 10 8 5 6 10 13 13 12 11 11 12 13 13 13 12 11 10 10 10 10 8 6 6 6 7 10 10 10 9 8 7 6 5 6 8 9 11 12 12 13 14 16 16 16 16 16 16 16 16 15 14 13
3 2 5 4 3 2 3 2 3 5 3 4 2 1 3 2 3 3 5 6 1 1 1 5 4 1 3 4 3 4 2 4 11 11 12 14 14 15 16 16 17 17 15 14 13 11 10 9 8 9 12 12 12 12 11 11 12 13 14 15 13 11 10 9 9 9 8 7 5 6 8 10 10 9 8 6 5 4 4 6 8 9 11 11 11 13 14 15 16 17 17 16 16 15 14 14 13
3 4 5 4 2 2 3 2 4 4 3 4 3 1 4 1 2 3 1 4 2 5 4 4 5 1 3 4 4 3 2 7 13 14 15 16 16 16 15 15 16 16 15 14 13 12 11 13 12 9 10 10 12 12 11 10 10 11 13 14 14 13 11 10 9 9 10 9 7 7 7 9 10 9 7 6 5 3 3 5 6 7 9 10 10 12 13 14 16 17 17 16 15 15 15 14 13
4 4 5 4 2 2 3 3 5 4 4 4 4 1 5 2 1 3 3 7 5 5 5 3 5 4 4 4 6 6 8 12 16 17 16 15 15 15 14 13 12 13 12 12 12 12 11 12 11 11 12 11 12 10 9 10 9 10 10 12 15 15 13 11 10 10 10 11 10 9 8 9 10 9 8 7 7 5 3 3 4 5 7 8 9 10 12 13 15 17 17 17 16 16 16 15 14
5 4 4 3 2 2 3 6 6 4 4 5 3 2 7 2 2 2 4 8 6 5 6 4 7 8 7 9 10 10 12 16 18 18 16 13 13 13 12 10 9 9 9 9 10 11 12 12 11 10 11 12 14 12 10 10 9 9 8 10 14 14 13 12 11 11 10 10 10 10 9 9 9 8 8 8 8 7 5 2 2 3 6 7 8 9 10 12 13 15 16 16 17 17 17 17 16
4 3 4 2 5 1 3 6 5 3 6 5 2 2 5 5 2 2 2 1 2 6 4 3 5 6 7 9 10 11 13 17 18 17 15 12 11 10 9 8 7 6 6 7 8 9 10 12 12 12 11 9 12 13 12 10 9 8 8 9 12 13 14 13 12 12 11 9 9 10 10 10 9 8 8 9 9 8 7 4 3 2 4 5 6 7 9 9 11 13 14 15 16 17 18 18 17
3 4 5 3 6 1 1 3 4 4 6 7 2 1 3 3 2 1 4 4 1 3 3 2 3 4 4 5 9 12 13 15 15 15 14 12 10 9 8 7 5 3 3 5 7 9 10 12 13 13 12 10 9 11 12 11 11 11 10 9 11 13 15 15 14 14 13 11 10 9 9 10 10 10 9 10 10 10 9 7 5 3 1 4 6 6 7 7 8 11 13 14 15 15 16 17 18
2 3 4 5 4 3 2 4 4 4 5 7 4 3 3 3 2 2 6 5 1 5 6 6 8 8 7 4 8 10 12 13 13 13 13 11 10 8 7 6 4 1 2 5 7 9 10 11 13 14 13 12 10 10 11 12 14 13 10 10 12 13 15 17 16 14 13 12 12 10 9 9 10 11 12 12 12 11 10 8 6 5 2 4 5 6 7 6 6 9 11 12 12 13 15 17 17
3 2 3 5 4 3 4 5 4 5 5 5 5 4 3 2 1 4 8 6 4 6 6 7 9 10 9 8 9 9 10 11 11 12 12 11 10 8 7 5 3 1 2 4 6 8 11 12 13 14 15 13 11 10 11 12 13 12 10 10 10 11 14 16 14 10 8 8 10 11 10 9 10 11 13 16 13 12 12 9 7 6 3 4 6 6 6 5 4 6 9 10 10 12 14 16 16
4 1 1 2 3 4 3 4 4 4 7 5 5 3 1 2 1 3 7 6 5 3 5 7 9 11 12 11 10 8 8 8 10 11 11 10 9 8 6 5 3 2 2 1 3 5 9 11 13 14 15 14 11 10 11 13 14 14 13 12 10 10 12 12 11 6 4 5 6 9 10 8 8 7 10 15 14 13 14 10 8 6 4 4 5 5 6 5 3 5 7 7 8 10 12 13 14
5 1 1 1 2 4 5 4 4 5 7 5 4 3 1 3 2 1 3 3 2 3 7 10 11 13 14 11 8 8 9 9 10 11 11 10 9 8 7 6 5 4 5 4 3 3 4 8 12 14 14 13 10 10 11 13 16 15 14 13 13 14 11 10 9 7 5 6 7 8 8 6 6 7 7 9 10 12 13 11 11 10 7 7 7 6 6 6 5 6 7 6 7 8 10 11 11
4 2 2 1 1 2 3 3 4 5 5 4 4 2 5 5 3 1 3 4 3 5 8 11 12 11 10 8 7 9 10 10 11 12 11 9 9 8 7 6 6 6 6 6 5 4 2 5 10 13 13 11 10 10 12 15 17 16 14 14 16 15 13 12 12 10 9 8 9 8 6 6 7 9 9 8 8 10 10 10 11 11 10 9 9 9 8 7 8 8 8 7 8 8 9 10 10
1 3 2 1 2 3 1 3 4 4 3 4 3 3 6 3 2 1 4 7 4 6 7 7 9 8 7 6 7 9 9 9 11 11 11 9 9 8 8 7 7 8 7 6 6 6 5 4 8 11 12 11 11 13 16 18 19 18 16 16 17 16 16 16 15 14 12 10 10 9 8 9 9 9 10 9 7 7 8 7 7 8 8 8 9 9 9 10 11 11 11 9 8 8 9 9 9
3 3 2 2 2 3 2 5 5 2 1 3 5 5 5 3 1 3 4 7 5 7 6 5 7 6 5 5 5 8 9 9 10 11 10 9 9 9 8 7 7 7 5 6 8 8 8 8 10 11 12 13 15 19 22 21 20 18 18 17 18 19 19 18 16 15 15 13 13 12 11 11 10 10 10 9 8 9 9 9 9 9 9 9 10 12 14 15 15 14 12 10 8 8 8 8 8
2 2 2 5 5 4 3 5 4 1 1 5 7 4 4 3 1 5 6 7 6 8 7 5 7 5 5 5 4 6 7 8 10 10 10 9 8 8 8 8 7 6 6 7 8 9 10 13 15 15 16 17 19 23 25 24 22 21 22 21 21 21 18 16 17 17 17 17 16 15 15 14 13 13 13 13 12 12 13 13 13 13 13 13 13 14 15 15 14 13 11 9 7 7 7 7 7
1 3 3 7 7 5 3 3 4 5 2 5 6 2 5 2 4 5 5 8 6 8 7 5 6 5 5 5 4 5 6 8 9 9 10 9 8 8 8 8 7 7 7 7 7 10 13 16 19 19 20 20 22 25 25 26 26 24 24 24 23 22 19 18 18 17 17 17 17 17 17 17 17 17 17 18 17 17 18 18 17 18 17 16 15 14 14 13 12 11 10 8 7 7 7 8 7
1 3 2 4 7 5 5 1 4 7 3 4 5 2 6 6 7 4 5 9 8 7 7 6 6 5 5 4 4 4 5 8 9 10 10 9 8 8 8 7 7 8 9 8 8 12 14 17 20 21 22 22 23 25 26 26 25 25 24 23 23 23 23 21 20 18 17 17 17 17 17 17 17 16 16 17 18 19 19 20 21 21 20 19 18 15 15 14 12 12 11 9 8 8 9 10 11
1 2 2 2 2 4 7 2 6 7 2 3 6 1 6 8 7 5 7 9 10 9 7 7 6 5 5 5 5 4 4 7 10 9 9 9 7 8 8 7 6 8 10 10 10 13 15 19 21 22 23 23 23 25 26 26 24 24 24 23 23 23 23 22 21 20 19 19 19 19 19 18 18 17 16 16 18 20 21 22 23 23 22 21 20 19 18 17 16 16 15 13 12 12 13 15 17
2 1 3 3 1 5 8 2 7 7 1 2 6 1 6 8 7 6 7 7 9 9 8 8 7 7 6 5 5 4 4 7 10 9 9 9 7 8 8 7 7 8 11 11 12 14 16 19 21 22 24 24 25 26 26 27 26 26 24 25 25 24 24 24 24 24 23 23 23 23 22 22 21 20 20 20 21 23 24 25 24 23 21 20 21 21 21 22 20 20 19 17 17 17 17 19 19
3 1 3 2 1 3 5 3 3 4 2 0 2 2 4 5 4 5 7 7 8 8 8 9 8 8 7 5 5 5 4 5 7 8 9 9 7 8 9 8 8 9 11 12 14 16 17 20 22 23 25 25 26 27 27 29 30 28 26 26 28 27 27 27 27 27 26 26 25 26 25 23 23 22 22 22 23 24 25 26 24 22 20 20 21 22 23 24 23 23 23 21 20 20 20 20 20
4 1 2 4 3 2 3 4 3 2 3 3 3 3 6 6 3 5 7 8 8 8 9 9 8 7 6 5 5 5 5 4 5 8 10 9 8 9 10 8 8 10 12 13 16 19 21 22 23 24 26 27 28 28 29 31 32 31 29 28 28 29 30 29 28 28 28 27 27 27 25 24 24 23 23 23 24 25 25 25 23 21 21 21 22 24 25 24 24 24 25 24 21 21 21 22 22
2 3 2 3 2 2 3 4 2 4 2 3 4 4 10 11 7 6 8 7 9 10 9 8 8 7 6 6 6 5 5 4 6 10 10 9 9 10 11 10 10 12 14 15 16 20 22 23 25 26 27 29 30 31 31 31 31 32 31 30 29 29 30 29 28 28 28 28 27 26 25 25 24 24 23 23 24 24 25 25 24 22 22 23 24 25 24 24 24 24 25 25 23 22 22 23 24
6 5 4 3 3 3 4 5 5 6 4 4 7 7 10 11 9 7 8 8 9 10 7 6 7 7 7 6 6 6 5 5 8 11 11 10 10 11 13 13 13 14 15 16 17 19 22 24 25 26 27 28 30 31 31 31 31 32 32 31 30 30 30 30 29 28 28 28 27 26 25 26 26 25 25 25 25 26 26 26 25 24 23 23 25 25 25 23 23 23 24 24 23 23 22 22 23
5 4 3 4 4 4 5 4 6 3 4 6 8 8 10 10 10 9 7 7 8 9 8 7 8 7 8 8 7 7 6 6 9 11 10 10 11 13 15 16 16 16 16 18 19 19 21 24 25 25 24 25 27 29 30 30 31 32 32 32 32 31 30 31 30 29 29 29 29 28 28 29 29 29 29 29 29 29 29 27 26 25 24 25 26 26 26 24 23 23 23 24 24 25 23 18 17
2 3 3 3 3 5 6 3 5 1 2 6 5 5 10 10 10 9 6 7 10 12 11 10 11 9 7 8 8 7 5 5 8 10 11 12 13 14 16 16 18 18 17 17 19 20 21 22 24 25 23 22 24 27 29 29 29 31 34 34 34 32 31 32 32 31 30 31 31 32 32 32 31 31 30 29 30 29 29 28 27 27 26 26 27 27 26 25 25 23 23 25 26 27 26 21 14
4 2 3 4 3 4 6 4 4 1 2 5 4 4 8 10 10 10 8 9 9 11 13 13 12 11 9 9 10 8 7 6 7 8 11 13 13 15 16 16 17 18 17 17 20 22 22 22 23 24 24 24 25 27 29 30 29 32 34 35 34 33 32 33 34 34 34 34 34 33 32 32 31 30 29 28 28 28 27 28 27 26 26 25 26 27 27 26 26 24 24 25 26 27 27 25 21
5 4 3 4 3 2 4 5 4 2 1 2 4 5 7 8 10 11 8 6 6 6 10 11 10 12 12 11 10 10 10 9 7 7 10 13 13 14 16 16 17 18 17 17 20 21 22 22 23 24 25 26 27 28 30 32 33 34 35 35 35 36 35 35 36 35 35 35 34 33 31 30 30 29 29 27 27 27 27 27 26 26 26 25 25 27 28 27 26 26 25 24 24 27 27 25 25
5 6 6 5 4 5 6 4 4 4 4 2 3 6 7 6 9 11 5 2 4 4 6 8 7 8 8 8 8 10 10 10 10 8 9 12 14 15 16 17 17 18 17 18 19 20 21 23 23 23 25 27 28 30 32 33 34 35 37 37 36 37 36 35 37 35 34 34 33 32 31 29 28 28 28 27 27 26 26 26 26 26 26 25 26 27 27 27 26 25 25 24 24 25 25 25 24
5 5 8 8 7 7 5 2 4 4 5 3 3 3 6 4 6 9 5 3 6 3 4 8 7 6 7 8 8 8 8 9 10 10 11 13 15 15 16 17 17 17 17 18 19 20 21 22 23 24 26 27 28 30 32 33 34 35 37 37 37 36 33 31 34 34 33 34 32 31 30 28 28 27 27 26 26 26 26 26 26 26 26 26 26 26 26 25 25 24 24 24 24 23 23 24 23
3 5 8 8 7 5 4 1 2 1 4 4 2 1 7 5 4 8 5 4 8 6 6 8 5 5 7 8 8 8 8 7 8 9 12 14 16 16 16 16 17 18 18 18 19 20 22 22 23 25 27 30 31 32 32 32 33 35 36 37 37 38 34 31 33 34 34 33 32 31 30 28 27 27 27 26 26 26 26 26 25 25 26 25 25 25 25 25 24 24 23 23 24 22 22 24 22
4 5 5 7 7 5 4 5 3 3 2 4 3 3 5 7 6 6 3 4 10 11 9 7 5 7 7 8 8 9 9 9 8 8 10 14 17 18 18 18 18 19 20 20 20 20 22 23 24 26 29 31 32 32 32 31 32 35 37 38 37 37 37 35 35 35 34 33 32 30 29 28 27 27 27 26 26 26 25 25 25 25 25 25 24 25 25 23 23 23 22 22 22 22 22 22 21
6 4 6 6 6 5 4 5 2 1 2 4 3 2 3 8 6 4 2 4 11 13 10 8 8 9 8 8 8 8 9 9 9 9 11 14 18 19 20 19 19 21 22 23 23 22 23 25 27 28 30 31 31 31 31 31 33 36 39 40 38 37 37 37 36 35 33 32 31 30 29 28 28 27 26 26 26 25 25 24 24 24 24 24 23 24 23 22 22 21 21 21 21 21 20 19 19
4 6 7 6 6 5 5 4 3 3 2 5 5 4 3 6 4 1 1 3 9 10 7 7 10 9 8 8 8 8 8 7 8 10 13 16 19 20 21 21 21 22 22 23 25 25 26 28 29 30 30 30 30 30 31 32 35 38 40 41 41 39 38 37 36 35 33 32 32 31 29 29 28 27 26 25 25 24 24 23 23 23 23 22 22 22 21 21 20 20 20 19 19 19 18 17 17
6 7 7 7 6 5 4 2 4 2 5 6 9 10 7 5 4 4 4 4 6 6 5 4 7 9 8 8 8 9 9 7 7 9 13 17 19 20 21 22 22 22 23 24 26 28 29 30 30 29 28 29 30 30 32 34 36 39 39 40 42 41 40 39 37 36 34 33 33 31 30 29 28 27 26 25 24 23 22 22 22 22 21 21 20 20 20 19 19 19 18 18 18 17 16 15 15
6 5 5 4 4 4 4 4 4 1 6 5 6 8 8 7 6 4 5 6 6 6 5 5 7 10 10 8 8 9 8 8 8 8 11 15 17 19 20 22 23 23 24 25 27 29 31 30 29 28 27 28 30 31 33 35 36 37 39 39 41 41 40 39 38 37 35 34 34 32 31 29 28 27 25 24 23 22 21 21 21 20 20 20 19 19 19 18 17 17 17 17 17 16 15 14 14
5 5 6 3 2 3 2 3 0 3 6 3 0 3 4 8 7 7 10 10 8 7 6 6 8 10 10 9 9 8 7 8 9 8 9 12 16 18 20 22 23 25 26 26 28 30 30 29 29 29 28 28 31 33 34 35 36 37 38 38 39 39 38 37 37 37 35 34 34 33 31 30 28 27 25 24 22 21 20 20 19 19 19 18 18 18 17 17 16 16 16 16 16 15 14 13 13
5 6 6 5 2 0 2 3 2 4 5 3 1 2 3 5 5 10 14 10 6 5 6 7 7 10 11 11 9 8 8 8 8 8 8 11 16 19 20 22 23 25 27 27 28 29 29 29 30 30 30 29 32 34 34 35 36 36 37 37 38 37 36 36 35 35 34 33 32 31 30 29 27 26 25 23 22 20 19 18 18 18 18 17 17 16 16 15 15 14 15 15 15 14 12 12 12
4 4 5 5 5 4 4 4 3 4 4 4 2 2 4 3 2 7 8 6 5 4 5 4 4 6 8 8 9 9 8 8 7 8 9 13 18 21 21 22 24 25 27 28 28 29 30 31 31 32 32 32 33 34 35 36 36 36 37 37 37 36 36 35 34 34 33 32 31 30 29 27 26 25 24 22 20 19 18 18 17 17 17 16 15 15 14 14 13 13 13 13 13 12 10 10 10
2 2 5 3 5 5 2 3 5 3 2 3 2 4 4 4 4 5 3 5 5 4 3 2 4 5 8 8 9 9 9 8 8 8 9 14 19 22 22 24 25 26 29 30 31 31 32 32 33 33 34 34 35 35 36 36 36 37 37 37 37 36 35 35 34 33 32 31 30 29 28 27 25 24 23 21 20 18 17 16 16 16 15 14 14 13 13 12 12 11 12 11 11 11 9 9 9
2 3 4 4 4 5 2 2 1 3 2 4 3 4 5 3 6 5 3 5 5 3 2 3 4 6 8 9 9 9 9 9 9 8 10 14 19 22 24 26 27 28 30 32 33 33 34 34 34 34 35 36 36 36 36 36 36 37 36 36 36 36 35 34 34 33 31 30 29 28 27 26 25 23 22 21 19 17 15 15 14 14 14 13 13 12 11 11 11 11 11 11 10 10 8 8 8
5 3 6 2 2 2 2 1 3 3 3 5 3 6 5 2 5 4 3 4 8 6 3 3 4 6 8 8 8 9 9 9 9 9 11 15 20 22 24 27 28 30 31 32 33 33 34 34 35 36 37 38 38 38 37 37 37 37 36 36 36 35 35 34 33 32 31 30 29 27 26 26 24 23 21 19 17 16 15 14 13 13 13 12 12 11 10 10 10 10 10 10 10 9 7 7 7
5 4 4 4 2 1 2 2 2 1 3 4 3 4 4 5 5 2 2 8 10 8 5 5 7 9 9 8 9 9 9 9 9 9 9 14 19 22 24 27 28 29 30 31 33 33 33 34 35 36 37 38 38 38 37 37 37 37 36 36 36 35 34 33 32 31 30 29 28 27 26 25 24 22 20 18 17 16 14 13 12 12 12 12 11 10 10 9 9 9 9 9 8 8 7 7 7
3 1 2 3 2 4 3 3 3 3 3 4 4 3 4 6 6 7 9 12 12 9 8 9 11 11 10 9 9 10 10 10 10 9 9 13 20 23 26 27 28 29 30 31 33 33 34 35 35 36 37 37 38 38 38 38 37 37 37 36 36 35 34 33 32 31 30 29 28 27 26 25 23 21 19 18 17 15 14 13 13 12 11 11 10 10 9 8 8 8 8 7 7 7 6 7 8
3 4 5 3 1 2 1 1 2 4 3 3 3 6 6 5 4 9 12 11 11 10 10 11 11 10 10 10 10 10 10 10 10 10 10 14 20 23 25 27 28 30 30 32 33 34 35 35 36 38 38 39 39 39 39 39 38 38 38 38 37 35 34 33 32 31 29 29 28 27 25 24 23 21 20 18 17 16 14 13 13 12 11 10 9 9 8 7 7 6 6 6 6 6 6 7 8
5 6 8 8 6 4 2 3 2 2 3 4 3 7 9 4 4 7 7 6 7 9 10 10 8 10 10 10 10 11 11 11 11 10 10 15 19 22 25 27 29 30 31 32 34 34 35 36 37 39 40 40 41 41 41 40 40 39 39 39 38 36 35 33 32 31 29 29 28 27 25 24 23 21 20 18 17 16 15 13 12 11 10 9 8 8 7 6 5 5 5 5 5 6 7 8 9
Wind_Direction
352 8 13 329 313 122 68 66 72 343 73 76 4 80 345 245 159 75 1 337 53 307 261 52 8 54 94 115 134 124 81 130 186 130 175 202 131 147 201 206 190 182 179 176 174 172 170 165 159 151 147 139 132 125 121 120 118 116 113 116 118 117 108 105 106 102 102 103 103 103 102 99 95 91 89 86 78 73 67 63 61 57 53 49 46 43 41 39 39 43 48 51 49 51 51 54 59
355 6 13 16 27 103 208 65 96 349 54 71 331 114 233 338 48 118 212 156 168 247 281 80 75 78 96 124 132 96 48 349 214 158 145 137 127 132 151 153 164 171 178 178 177 175 172 167 162 157 153 146 139 132 127 125 124 121 118 121 124 125 115 107 107 103 103 105 104 103 102 100 97 93 90 84 77 74 68 64 61 56 51 49 46 44 42 40 40 42 46 49 49 52 54 58 64
359 4 29 106 84 65 63 45 96 68 71 98 300 265 352 64 125 197 217 205 227 247 345 71 86 70 77 87 52 65 49 335 12 23 113 142 144 134 145 155 156 164 177 180 180 178 176 170 166 164 157 150 144 139 133 129 128 126 123 124 129 132 127 117 113 110 109 110 109 107 105 104 101 97 93 84 78 75 71 66 62 55 51 50 47 45 42 41 39 40 43 45 48 50 54 60 65
0 8 26 91 68 36 59 50 117 115 107 147 177 278 265 148 176 214 231 242 262 317 73 57 60 351 72 89 40 70 63 320 0 356 172 192 163 143 152 163 165 168 172 180 183 182 180 174 170 168 162 155 149 145 138 132 128 127 124 126 132 137 136 126 120 117 117 117 114 113 111 110 106 102 97 85 80 78 75 70 63 55 52 51 48 46 43 42 41 39 41 45 49 51 54 56 61
9 41 41 63 76 47 83 73 96 98 157 173 131 262 236 179 187 215 244 276 306 62 105 87 68 324 63 85 50 83 310 296 359 25 83 150 149 144 153 167 173 174 173 180 185 185 182 177 175 173 169 161 153 150 143 132 127 126 124 128 136 139 139 132 126 123 121 122 120 120 119 115 110 106 99 87 85 81 76 70 62 55 53 52 48 46 43 43 42 41 42 45 48 51 54 55 60
24 78 55 56 84 114 86 76 86 83 203 165 139 220 219 190 182 186 232 314 347 54 85 77 119 124 63 21 56 82 313 298 331 16 62 115 146 148 155 169 173 176 178 179 186 187 183 182 178 176 174 166 157 154 148 136 128 128 125 127 141 142 140 134 128 127 124 125 126 128 125 120 116 111 103 91 89 82 75 66 59 55 52 51 49 46 44 44 43 43 43 46 49 51 54 55 59
25 79 37 57 46 42 89 108 132 145 201 160 155 179 204 210 180 147 134 11 25 25 51 93 135 109 75 304 70 27 15 19 2 61 89 119 157 157 155 171 172 174 179 177 183 187 188 187 181 179 179 171 164 159 152 143 133 134 130 129 144 145 142 137 128 128 128 129 133 132 130 126 123 119 107 98 94 86 73 63 57 55 54 52 50 48 46 46 45 45 46 49 52 54 55 55 58
29 67 20 81 41 29 93 108 144 174 129 157 170 173 197 204 173 126 131 107 78 18 39 155 135 90 3 40 102 332 26 45 76 98 111 114 166 166 160 172 172 171 176 175 179 186 190 188 185 184 180 176 171 164 157 150 143 141 134 133 145 148 146 142 133 131 132 135 139 137 135 132 128 122 111 105 100 89 75 65 60 57 57 56 52 50 48 47 46 47 49 50 54 57 58 60 62
43 51 39 80 71 46 64 62 84 177 141 123 155 183 205 193 154 115 125 68 126 90 29 269 131 100 123 54 83 285 17 39 80 115 116 103 144 170 168 171 172 171 175 177 178 183 184 185 188 186 181 181 178 168 163 157 149 145 139 138 144 151 152 149 143 139 140 142 143 141 139 135 130 121 111 107 101 93 81 68 63 59 58 59 55 52 49 48 48 49 51 53 56 59 60 63 68
45 32 95 77 79 71 52 69 60 139 225 234 179 189 221 195 126 94 118 124 351 85 17 316 79 104 133 82 101 309 17 29 76 115 118 106 119 153 160 160 168 174 179 179 177 179 179 182 186 185 183 182 183 173 169 163 154 149 142 142 147 153 156 159 156 147 147 150 148 146 143 139 135 126 116 111 104 98 86 70 64 60 59 59 55 52 49 48 49 50 54 56 59 63 64 66 73
40 355 95 77 76 114 160 164 192 174 272 295 314 284 237 172 106 63 73 109 358 78 72 9 79 120 103 77 222 250 25 45 78 96 103 118 118 134 143 141 152 167 178 179 175 177 176 178 181 188 186 183 185 177 172 167 158 152 146 147 152 158 162 169 168 156 154 157 155 151 150 146 143 137 129 123 112 103 87 71 66 62 60 58 53 50 48 48 51 55 58 60 63 66 69 72 79
84 337 67 83 112 160 178 153 177 198 311 342 12 300 318 83 87 88 84 110 17 63 67 11 134 142 84 48 224 234 32 56 89 89 81 137 126 122 131 134 137 146 162 168 169 172 171 175 183 191 190 186 186 181 176 170 165 156 152 153 157 166 172 178 177 169 165 161 160 157 158 156 153 153 143 135 125 112 89 73 70 66 61 58 53 51 48 50 56 61 63 64 66 68 72 77 85
113 152 84 86 141 134 136 140 184 121 343 265 198 289 34 64 101 163 141 97 36 68 36 332 141 111 90 207 219 296 11 49 107 111 91 135 133 123 126 132 133 136 144 151 155 159 167 182 193 193 193 193 189 184 180 175 173 166 160 160 164 173 179 188 186 180 179 168 163 163 167 166 165 165 154 147 138 117 91 77 75 68 62 59 56 54 52 55 62 66 66 65 67 69 73 79 86
126 157 103 105 83 109 135 125 171 128 241 258 243 284 24 76 172 170 122 78 30 82 8 340 119 104 106 170 18 292 327 50 127 131 104 119 137 133 126 128 133 137 143 151 153 157 164 177 196 191 190 197 192 186 186 181 180 176 169 167 168 175 184 194 195 188 190 180 168 170 175 176 174 171 162 159 148 119 89 78 80 70 62 60 58 58 58 62 67 68 67 67 69 69 72 76 80
128 131 87 106 48 72 151 137 156 142 202 246 248 238 64 94 161 135 120 121 62 353 358 16 46 140 155 151 198 246 314 96 139 139 116 114 127 131 129 128 130 134 141 149 153 159 163 169 183 184 188 202 198 187 186 185 189 188 180 176 171 174 184 192 200 198 196 194 182 174 180 182 179 175 171 169 155 125 86 76 80 72 65 63 61 62 63 65 66 65 65 67 70 70 70 72 73
112 106 68 87 58 90 154 138 133 131 213 229 250 179 77 328 150 110 236 138 106 351 22 12 0 38 129 139 174 182 101 127 146 143 125 116 117 122 127 129 130 132 136 141 144 151 160 174 177 172 187 203 200 193 192 192 198 197 192 189 178 175 182 185 198 206 201 200 194 180 181 185 184 182 182 182 173 155 95 72 78 74 68 66 65 66 65 64 63 59 58 59 65 69 70 70 69
63 76 63 71 104 132 166 166 160 165 216 238 279 174 113 299 330 106 359 62 85 14 39 19 1 53 84 102 124 118 118 132 147 145 127 118 115 115 117 121 131 134 136 140 141 144 153 172 173 171 183 189 194 203 209 210 212 206 204 200 189 184 183 182 191 205 204 199 198 189 181 184 188 189 189 194 186 176 147 81 83 76 67 70 69 69 68 65 63 58 54 53 55 61 65 67 67
56 78 85 97 152 147 175 179 193 171 158 207 257 140 129 163 292 129 41 46 77 57 41 28 35 54 77 96 106 112 126 134 143 141 124 118 115 109 103 104 119 129 138 146 151 152 154 164 166 169 180 186 194 204 213 211 208 209 210 201 197 193 188 189 192 204 207 198 198 193 186 184 189 194 193 196 192 185 178 139 118 84 65 72 77 74 72 68 65 61 55 51 50 53 56 58 60
81 107 87 162 197 182 197 177 195 178 148 176 214 125 131 159 196 121 99 42 104 81 39 21 60 69 73 86 99 109 122 127 135 133 119 111 109 103 96 96 108 121 143 155 164 167 165 168 168 168 170 178 192 201 207 201 194 203 211 206 205 198 194 198 198 205 209 202 198 192 192 190 190 197 196 198 195 188 185 173 163 119 58 72 89 85 79 72 67 63 57 52 51 52 54 55 56
107 107 80 224 208 168 265 173 167 174 146 142 155 119 116 178 216 78 139 160 148 146 167 163 152 157 119 89 94 102 109 113 122 124 115 105 100 97 93 90 94 113 161 181 184 182 182 181 179 176 170 166 173 189 195 195 199 200 205 214 211 201 199 203 204 210 209 201 198 190 189 191 193 195 194 199 198 191 188 185 180 173 98 94 105 101 91 79 70 66 61 55 52 55 58 59 59
75 94 137 203 171 117 233 199 152 141 138 138 139 106 123 215 225 119 145 140 261 234 206 186 179 171 158 135 103 102 101 102 108 111 109 104 98 94 91 86 83 97 204 212 210 201 197 193 188 185 179 170 161 171 183 194 202 197 199 212 209 206 205 204 207 213 214 201 191 191 191 189 194 198 197 197 197 194 190 189 189 194 186 117 119 118 105 93 80 70 64 60 56 58 60 60 60
69 21 182 186 143 129 231 220 178 143 117 115 124 137 158 195 178 149 157 169 232 231 206 181 164 158 155 144 123 108 101 99 101 104 104 103 101 97 94 89 84 82 256 239 227 215 208 203 197 190 184 179 166 166 177 182 190 191 196 203 199 208 213 212 215 214 213 197 180 191 199 197 205 211 209 197 191 194 192 189 193 203 193 133 134 134 121 110 93 78 70 65 61 59 59 59 59
103 322 304 218 175 151 199 214 200 145 114 132 164 181 124 90 274 193 164 194 235 201 155 146 143 148 144 133 127 119 114 113 109 109 107 106 104 98 94 80 66 39 355 295 212 205 210 204 203 196 184 185 177 170 177 175 185 192 194 197 190 198 205 205 211 204 195 187 172 186 191 200 213 208 207 200 193 197 195 184 186 196 176 161 164 154 143 136 126 99 83 72 68 64 61 61 59
91 145 277 270 189 158 180 182 173 139 132 172 159 107 140 163 212 196 168 225 239 133 115 119 127 133 129 121 123 128 126 121 117 114 107 107 107 102 96 81 70 54 40 52 97 147 196 195 200 195 183 186 180 173 178 174 181 185 183 185 175 176 178 164 171 174 170 164 159 173 179 191 191 170 182 197 199 200 198 191 190 190 181 191 194 181 176 171 168 136 108 92 85 79 72 66 62
69 147 224 278 282 232 204 167 157 157 154 150 101 112 228 205 172 161 197 212 186 131 109 113 118 116 117 116 122 127 126 122 121 116 107 108 112 107 98 87 80 68 58 67 78 88 126 174 187 186 181 179 167 165 167 164 169 166 160 154 144 151 151 137 143 145 140 137 136 145 160 171 169 169 171 175 190 189 189 195 191 190 191 199 202 202 205 190 172 149 130 118 102 94 86 73 66
193 160 228 266 290 299 197 186 199 198 187 129 116 269 267 247 202 245 206 192 182 121 107 115 114 108 114 119 126 128 131 133 126 118 111 110 111 103 94 88 83 74 69 76 80 86 90 124 163 171 172 164 155 157 157 155 157 153 146 137 128 134 134 132 136 130 128 130 126 127 140 150 151 159 159 157 168 152 147 167 166 172 180 184 189 185 174 161 150 141 135 127 111 99 92 80 70
190 153 225 243 276 294 171 208 236 229 268 163 171 247 287 316 235 245 222 191 169 119 118 121 113 119 128 121 123 126 131 139 134 124 114 108 106 102 97 92 85 83 88 90 89 96 103 113 134 148 151 152 152 149 147 148 151 150 145 140 130 128 126 123 124 121 122 124 120 122 128 133 136 137 139 142 146 132 128 133 129 133 128 124 137 138 134 135 133 130 129 126 114 98 87 79 66
150 117 295 304 326 303 200 213 238 157 252 185 165 233 294 3 227 232 203 179 164 137 141 137 125 135 139 129 122 124 127 137 139 128 116 111 109 109 107 104 99 98 108 105 100 108 116 120 125 135 141 148 148 138 136 137 141 143 139 139 134 129 130 125 119 114 112 112 113 116 117 119 123 125 127 128 128 125 121 118 114 111 105 103 111 115 116 120 122 121 117 113 104 90 80 74 65
97 62 340 310 352 337 252 228 202 160 192 183 144 313 299 228 231 249 176 158 150 141 151 155 148 150 145 138 130 129 128 131 132 122 118 118 117 119 112 111 116 115 117 115 116 123 125 125 128 134 139 147 145 135 133 131 132 134 131 131 131 130 134 130 121 115 111 111 112 114 116 117 119 119 121 120 118 116 113 109 107 104 102 103 106 111 113 113 115 112 103 97 87 79 74 72 73
336 43 49 317 1 339 287 314 163 158 171 169 137 307 281 252 256 260 162 152 142 148 171 173 164 162 159 151 139 141 136 129 126 123 124 122 123 125 115 116 122 120 125 130 131 132 132 132 133 135 138 144 143 137 134 131 130 131 128 126 125 124 124 122 118 117 116 115 115 116 117 117 117 117 117 116 113 111 108 105 103 102 102 102 103 106 106 103 101 93 83 78 71 66 68 74 82
354 3 31 10 20 287 294 337 145 156 194 132 116 202 263 271 274 226 176 163 156 168 187 180 177 176 172 165 150 153 148 135 131 132 130 127 128 125 122 126 126 124 133 141 137 134 136 136 137 138 138 142 141 136 132 131 131 130 128 125 123 120 119 119 119 120 119 118 118 119 119 121 121 122 122 122 118 113 109 106 104 104 104 104 101 97 94 90 86 82 77 76 74 72 79 86 90
32 2 319 346 147 271 306 313 155 156 230 88 112 195 268 278 269 203 176 175 170 178 191 186 187 183 178 173 158 149 144 136 135 135 132 134 134 124 127 130 130 132 136 145 142 139 139 136 141 141 138 141 138 134 130 128 127 127 127 124 121 120 118 118 119 120 121 120 120 120 122 124 123 125 125 125 121 115 111 109 108 107 105 101 96 92 88 83 81 81 77 76 76 78 88 94 93
356 98 254 278 179 282 320 320 206 159 131 139 163 212 263 288 280 199 181 184 182 186 196 195 193 189 181 173 163 152 142 133 135 139 135 139 140 130 131 130 133 137 137 147 146 143 141 134 139 139 135 139 136 134 133 127 122 122 124 121 118 118 116 117 118 119 120 119 119 118 119 120 120 121 122 122 119 114 110 109 108 107 103 98 93 89 85 81 80 79 75 72 73 78 88 95 96
321 21 235 250 209 237 301 300 285 132 131 215 219 226 247 271 280 212 203 192 189 202 206 202 197 189 183 173 167 161 154 152 153 149 143 143 143 135 135 134 136 139 139 145 146 143 140 133 134 134 132 134 132 132 133 126 121 121 121 120 118 116 115 117 118 117 117 116 116 114 115 115 115 116 117 117 115 113 111 109 108 106 101 97 93 88 85 82 79 76 73 70 71 77 87 96 100
195 191 207 261 243 227 254 273 240 150 157 218 197 233 254 263 263 225 220 201 198 216 211 200 199 188 185 179 172 171 163 172 170 154 148 149 144 137 139 139 137 139 138 140 143 141 138 135 132 129 130 131 128 128 127 124 121 119 119 120 118 116 115 116 117 116 115 115 115 115 115 114 114 114 114 115 114 114 113 110 109 105 100 97 93 88 83 80 78 76 74 73 73 78 87 99 103
167 176 158 181 223 253 239 255 248 180 173 230 212 228 248 255 257 238 228 212 209 226 214 194 203 193 189 185 178 176 168 178 172 154 152 155 148 142 140 139 136 136 136 134 135 135 135 136 133 127 127 128 128 126 125 124 122 118 118 119 116 114 115 116 115 115 115 115 115 115 116 114 114 114 113 113 113 114 112 109 107 102 98 95 90 84 78 75 75 75 76 75 78 82 89 102 106
135 135 146 189 206 263 258 257 275 190 163 245 229 232 253 256 257 249 230 212 217 227 218 206 204 198 194 188 180 175 171 177 165 153 156 157 150 147 142 138 136 133 133 132 130 130 132 136 135 129 127 128 130 130 128 126 124 121 119 117 114 112 114 115 114 114 115 115 115 115 114 113 113 112 110 110 109 109 107 105 103 97 94 90 85 82 79 76 73 73 76 76 77 78 78 89 107
155 160 203 249 213 250 261 245 288 296 171 260 255 247 261 259 259 257 219 200 219 217 211 214 205 200 196 183 179 173 166 163 156 153 157 157 152 150 146 141 141 138 137 139 137 136 135 136 138 135 134 133 132 133 133 129 125 125 122 119 117 115 113 115 114 114 115 116 115 113 113 112 112 110 108 107 105 104 103 101 98 94 92 89 87 85 82 80 77 75 76 76 77 75 69 68 84
233 189 182 248 237 262 282 285 310 353 174 263 300 291 267 263 264 260 225 207 225 214 208 213 200 193 192 183 178 168 162 162 161 160 161 162 158 155 153 147 147 148 146 146 146 145 141 140 141 141 141 139 136 135 135 131 126 124 124 123 122 119 114 114 115 115 116 115 113 112 111 111 110 108 106 105 103 102 100 98 96 94 93 91 90 88 84 81 79 77 76 77 78 76 71 64 64
224 189 170 233 245 240 269 290 315 331 225 263 316 307 273 268 267 260 243 222 242 231 219 220 201 193 192 183 175 166 165 167 167 168 166 167 163 159 159 153 151 153 153 151 150 150 147 146 147 146 145 143 141 139 136 132 128 124 124 122 122 119 116 115 115 114 114 113 111 111 110 109 108 106 105 103 101 100 98 97 96 94 92 90 89 87 84 82 80 78 76 76 76 76 75 68 63
237 204 189 207 221 213 227 281 326 333 340 359 353 314 277 258 254 258 290 329 267 248 225 224 208 194 179 162 168 171 168 166 165 170 172 169 166 163 162 157 154 155 156 157 156 155 152 151 152 149 147 146 144 141 138 136 132 127 123 120 118 117 115 115 115 112 112 113 111 110 108 107 106 104 102 100 99 98 96 96 94 93 91 88 86 85 84 82 80 78 76 75 75 77 81 76 69
264 229 202 199 199 213 234 344 13 354 334 339 20 316 282 283 257 259 297 312 262 244 217 220 203 179 165 161 173 174 169 170 166 166 169 169 167 165 162 159 158 155 156 160 162 161 157 155 156 153 149 146 144 141 139 139 138 134 131 126 122 119 116 114 115 114 114 114 112 111 109 107 106 103 102 100 99 98 96 95 93 92 90 87 86 85 84 83 80 78 77 77 77 77 83 82 75
259 242 203 192 178 188 213 117 70 261 265 292 57 146 274 290 254 253 261 253 260 255 232 227 203 184 182 178 176 169 168 170 166 164 166 168 166 163 162 160 159 157 159 163 163 162 161 159 159 155 150 146 145 143 142 143 141 139 138 134 129 127 122 117 119 119 117 116 114 113 111 108 106 104 103 101 100 98 96 95 93 91 90 88 87 85 84 83 80 79 76 76 77 74 75 79 77
240 238 161 156 160 174 181 146 166 229 259 313 17 111 274 281 252 258 258 239 266 262 240 229 207 203 197 184 176 171 172 169 165 166 166 169 168 164 162 160 159 160 161 162 161 161 161 160 159 156 151 148 148 148 147 149 148 144 139 135 130 128 125 122 122 121 119 119 117 114 112 110 108 106 105 103 101 99 97 96 94 92 91 89 87 85 84 83 81 79 76 73 75 72 70 74 76
241 197 125 127 143 149 125 115 149 333 4 300 295 130 260 274 261 289 322 237 260 262 241 218 205 207 198 184 178 173 174 171 166 167 166 169 169 166 162 159 159 161 163 163 162 162 162 160 160 158 154 152 152 153 152 152 152 148 142 136 130 127 126 125 125 124 123 122 118 116 115 113 111 108 106 104 102 101 99 97 96 93 92 90 88 87 86 85 82 79 77 74 74 74 73 75 76
205 128 94 70 75 78 75 95 102 36 327 243 212 171 233 272 248 207 2 237 250 264 257 215 202 202 191 180 178 173 172 171 166 164 163 166 169 166 161 159 159 161 165 166 164 164 163 160 159 157 156 156 155 157 156 152 151 149 144 140 135 131 130 129 128 127 126 124 121 120 118 116 114 112 109 107 104 103 100 98 96 94 93 92 90 89 88 86 84 83 82 80 79 79 78 77 79
132 97 64 47 35 37 46 52 79 53 282 234 195 188 199 268 267 201 206 222 223 245 280 246 199 193 190 183 179 174 170 167 162 159 158 161 165 164 161 159 160 160 163 165 163 162 161 158 158 156 157 158 158 158 156 151 150 149 146 144 140 137 136 135 133 131 130 128 125 124 122 119 117 114 112 109 106 104 102 100 97 96 95 94 92 91 90 89 88 87 87 86 85 84 83 82 83
104 88 80 66 352 9 24 359 45 161 258 250 206 190 187 233 259 239 244 253 229 218 245 241 203 196 195 186 179 174 168 163 159 156 156 156 159 163 163 161 160 160 161 163 163 161 158 157 158 156 157 160 159 158 156 152 150 149 148 146 143 142 141 140 137 135 134 132 129 127 126 123 120 118 115 112 110 108 105 102 100 99 97 95 93 92 91 92 92 90 88 87 87 86 84 83 82
80 101 109 111 308 357 355 307 329 224 253 285 282 143 198 238 251 261 263 265 253 228 230 230 207 197 191 182 177 171 164 162 159 158 158 158 162 167 166 163 162 162 163 165 164 162 160 160 161 158 158 162 161 158 156 154 153 152 150 148 146 145 144 143 140 138 137 135 133 131 129 127 124 122 120 116 113 110 106 103 101 98 96 94 94 93 93 94 93 90 87 85 84 82 79 75 73
141 140 142 151 160 118 272 264 274 262 267 301 357 138 243 269 264 252 253 261 268 247 242 240 213 194 186 177 168 161 163 165 162 161 162 164 168 170 170 166 165 166 168 168 167 165 164 164 165 162 160 165 165 161 159 158 156 155 154 152 150 149 147 145 142 141 139 137 135 133 131 130 127 125 122 119 116 113 108 104 100 98 97 96 94 93 92 92 90 87 85 83 81 79 77 72 70
180 152 137 153 156 167 221 217 216 255 282 300 296 174 201 212 248 251 251 274 295 284 266 244 193 174 163 155 155 159 167 167 164 164 166 170 171 172 172 170 169 170 171 171 170 169 168 167 168 166 163 167 169 165 163 162 160 158 157 155 153 152 149 147 144 142 140 139 137 135 133 131 129 126 123 120 118 114 108 104 101 98 98 97 94 93 92 91 90 87 85 84 84 82 81 77 74
230 115 114 170 181 171 206 201 177 188 292 288 231 222 218 206 257 272 289 300 304 338 354 86 118 132 138 150 163 167 170 169 169 169 169 173 174 174 174 173 173 174 174 174 174 173 172 171 171 170 168 170 172 171 167 166 164 162 160 158 156 154 151 148 145 143 142 141 139 137 135 133 130 127 124 122 118 113 109 106 103 100 99 98 97 96 96 95 95 92 91 90 89 87 84 80 75
160 135 173 200 172 148 165 267 55 88 270 265 200 241 288 307 278 286 352 310 294 336 8 119 136 147 154 167 174 172 174 171 172 174 173 174 175 178 178 176 177 178 177 178 177 177 176 174 173 172 170 172 175 174 171 169 167 165 163 161 158 156 153 150 147 145 144 142 141 139 136 134 132 129 126 124 120 116 112 108 105 103 102 101 101 101 101 102 100 98 97 94 91 88 85 81 71
129 179 202 164 78 91 117 245 346 45 251 270 215 233 264 240 265 318 25 287 266 257 230 162 160 175 177 180 178 176 174 170 173 175 174 176 178 181 182 181 181 182 181 180 179 179 179 178 177 174 173 173 175 176 174 172 170 168 167 164 161 158 155 152 149 148 147 146 144 142 139 137 135 132 130 127 124 121 116 112 109 107 106 104 104 105 104 104 103 102 101 97 94 89 82 76 64
126 187 183 111 121 194 114 166 235 202 244 285 275 249 243 203 219 268 211 231 241 236 208 187 195 195 190 184 178 176 171 169 176 176 175 179 181 183 184 183 183 183 183 181 179 180 180 180 180 179 177 175 176 176 174 173 173 171 170 167 164 161 158 155 153 152 151 150 148 145 143 140 138 136 134 132 129 125 122 119 115 112 111 109 107 109 109 108 107 102 100 97 93 87 76 63 49
64 103 118 87 147 173 163 169 165 165 218 273 297 294 256 222 204 190 202 219 221 210 199 207 209 199 191 184 177 177 177 178 180 179 179 181 183 185 185 184 184 183 183 181 179 180 180 180 179 178 177 176 176 177 176 175 176 175 173 170 167 163 161 159 158 157 156 154 151 149 147 144 142 141 139 137 134 131 128 125 121 116 113 111 112 113 113 112 108 101 96 93 87 79 66 51 35
157 151 163 177 136 115 163 212 139 136 174 220 284 288 265 244 203 191 202 215 213 202 203 213 211 197 192 186 181 181 180 182 183 180 180 180 182 185 184 184 183 183 183 182 180 181 181 180 179 178 177 176 177 178 178 178 178 178 176 173 170 167 165 163 162 161 159 156 154 152 150 148 147 146 145 142 139 136 133 128 124 119 113 111 113 115 114 112 106 99 93 86 77 63 46 36 24
178 188 186 179 166 139 163 246 217 145 183 185 203 270 265 241 198 204 202 208 215 206 209 218 210 195 192 187 184 184 180 182 184 179 178 179 180 181 181 182 182 182 182 182 181 182 181 181 181 180 179 179 179 180 181 181 180 180 179 176 173 170 169 167 165 163 162 159 158 156 155 154 152 150 148 146 143 140 136 130 124 118 114 114 115 115 114 111 104 94 87 76 62 45 30 20 12